GW0518 Weather Reports


time (UTC)temp
C
wind
direction
speed
KPH
gust
KPH
rain 1hr
cm
rain 24hr
cm
rain mn
cm
humidity
%
barometer
mb
20260504070201 10 217 4.8 12.9 0.00 0.00 0.00 61 1009.1
20260504060202 10 231 4.8 11.3 0.00 0.00 0.00 58 1009.4
20260504050701 10 237 6.4 16.1 0.00 0.00 0.00 58 1009.5
20260504050201 10 221 4.8 12.9 0.00 0.00 0.00 59 1009.5
20260504045701 10 208 4.8 12.9 0.00 0.00 0.00 59 1009.5
20260504045201 10 213 4.8 11.3 0.00 0.00 0.00 59 1009.5
20260504044702 10 213 4.8 11.3 0.00 0.00 0.00 59 1009.5
20260504044200 10 229 4.8 12.9 0.00 0.00 0.00 60 1009.5
20260504043700 11 243 4.8 14.5 0.00 0.00 0.00 60 1009.6
20260504043201 11 225 4.8 14.5 0.00 0.00 0.00 60 1009.6
20260504042920 11 217 3.2 9.7 0.00 0.00 0.00 61 1009.5
20260504042435 11 194 3.2 8.0 0.00 0.00 0.00 61 1009.6
20260504041921 11 194 3.2 9.7 0.00 0.00 0.00 61 1009.7
20260504041203 11 194 3.2 9.7 0.00 0.00 0.00 61 1009.6
20260504040758 11 233 3.2 6.4 0.00 0.00 0.00 60 1009.7
20260504040749 11 233 3.2 6.4 0.00 0.00 0.00 60 1009.6
20260504035701 11 233 3.2 8.0 0.00 0.00 0.00 61 1009.5
20260504035202 11 233 3.2 8.0 0.00 0.00 0.00 60 1009.6
20260504034700 11 235 3.2 6.4 0.00 0.00 0.00 60 1009.6
20260504034201 11 235 3.2 6.4 0.00 0.00 0.00 60 1009.6
20260504033700 11 235 3.2 8.0 0.00 0.00 0.00 60 1009.6
20260504033423 11 235 3.2 8.0 0.00 0.00 0.00 60 1009.7
20260504032701 11 234 4.8 11.3 0.00 0.00 0.00 60 1009.8
20260504032201 11 234 6.4 12.9 0.00 0.00 0.00 59 1009.8
20260504031701 11 223 4.8 12.9 0.00 0.00 0.00 59 1009.8
20260504031201 11 236 4.8 14.5 0.00 0.00 0.00 59 1009.8
20260504030700 11 236 4.8 14.5 0.00 0.00 0.00 59 1009.9
20260504030201 11 263 4.8 11.3 0.00 0.00 0.00 59 1009.9
20260504025701 11 241 6.4 12.9 0.00 0.00 0.00 59 1009.9
20260504025201 11 238 4.8 12.9 0.00 0.00 0.00 59 1009.9
20260504024700 11 256 4.8 16.1 0.00 0.00 0.00 59 1009.9
20260504024200 11 254 4.8 16.1 0.00 0.00 0.00 59 1009.9
20260504023701 11 259 4.8 14.5 0.00 0.00 0.00 59 1009.8
20260504022701 11 254 6.4 17.7 0.00 0.00 0.00 60 1009.9
20260504022201 11 264 6.4 17.7 0.00 0.00 0.00 60 1010.0
20260504021701 11 247 4.8 14.5 0.00 0.00 0.00 60 1010.1
20260504021201 11 236 4.8 19.3 0.00 0.00 0.00 61 1010.3
20260504020426 11 241 6.4 16.1 0.00 0.00 0.00 61 1010.5
20260504015701 11 286 6.4 19.3 0.00 0.00 0.00 61 1010.6
20260504015200 11 271 6.4 20.9 0.00 0.00 0.00 61 1010.6
20260504014701 11 262 6.4 20.9 0.00 0.00 0.00 61 1010.7
20260504014423 11 296 6.4 24.1 0.00 0.00 0.00 60 1010.7
20260504013923 11 298 9.7 24.1 0.00 0.00 0.00 60 1010.8
20260504013201 11 300 12.9 32.2 0.00 0.00 0.00 59 1010.7
20260504012701 11 261 14.5 32.2 0.00 0.00 0.00 59 1010.6
20260504012200 12 263 11.3 32.2 0.00 0.00 0.00 57 1010.5
20260504011701 12 270 8.0 29.0 0.00 0.00 0.00 55 1010.4
20260504011201 12 321 6.4 20.9 0.00 0.00 0.00 53 1010.3
20260504010700 12 288 6.4 20.9 0.00 0.00 0.00 54 1010.1
20260504010159 12 285 8.0 20.9 0.00 0.00 0.00 53 1010.1
20260504005659 12 286 8.0 19.3 0.00 0.00 0.00 53 1010.0
20260504005425 12 278 9.7 25.7 0.00 0.00 0.00 53 1010.0
20260504004700 12 258 12.9 27.4 0.00 0.00 0.00 53 1010.0
20260504004159 12 327 12.9 33.8 0.00 0.00 0.00 52 1010.1
20260504003659 12 300 11.3 33.8 0.00 0.00 0.00 51 1010.1
20260504003159 12 234 11.3 29.0 0.00 0.00 0.00 51 1010.0
20260504002701 12 296 12.9 33.8 0.00 0.00 0.00 50 1010.0
20260504002200 12 265 12.9 33.8 0.00 0.00 0.00 50 1009.9
20260504001659 12 271 12.9 32.2 0.00 0.00 0.00 50 1009.9
20260504001159 12 317 11.3 27.4 0.00 0.00 0.00 49 1009.7
20260504000659 12 284 9.7 22.5 0.00 0.00 0.00 49 1009.7
20260504000159 12 312 8.0 20.9 0.00 0.00 0.00 49 1009.6
20260503235659 12 267 8.0 22.5 0.00 0.00 0.00 50 1009.6
20260503235159 12 265 8.0 22.5 0.00 0.00 0.00 50 1009.4
20260503234200 12 262 9.7 33.8 0.00 0.00 0.00 49 1009.4
20260503233659 12 238 9.7 24.1 0.00 0.00 0.00 48 1009.4
20260503233200 12 267 8.0 16.1 0.00 0.00 0.00 48 1009.6
20260503232659 12 238 9.7 27.4 0.00 0.00 0.00 48 1009.4
20260503232420 12 269 12.9 32.2 0.00 0.00 0.00 47 1009.6
20260503231659 12 248 9.7 32.2 0.00 0.00 0.00 48 1009.6
20260503231424 12 319 8.0 24.1 0.00 0.00 0.00 50 1009.7
20260503230659 12 284 8.0 24.1 0.00 0.00 0.00 50 1009.8
20260503230158 12 305 9.7 27.4 0.00 0.00 0.00 51 1009.8
20260503225925 12 296 11.3 37.0 0.00 0.00 0.00 50 1010.2
20260503225423 12 273 9.7 37.0 0.00 0.00 0.00 49 1009.7
20260503224919 12 307 4.8 16.1 0.00 0.00 0.00 49 1009.9
20260503224159 12 236 4.8 16.1 0.00 0.00 0.00 49 1009.8
20260503223700 12 32 4.8 14.5 0.00 0.00 0.00 50 1009.8
20260503223159 12 268 4.8 14.5 0.00 0.00 0.00 50 1009.6
20260503222659 12 242 6.4 14.5 0.00 0.00 0.00 49 1009.6
20260503222422 13 250 8.0 16.1 0.00 0.00 0.00 49 1009.7
20260503221659 13 263 6.4 16.1 0.00 0.00 0.00 48 1009.6
20260503221159 13 250 6.4 14.5 0.00 0.00 0.00 48 1009.6
20260503220656 13 238 6.4 14.5 0.00 0.00 0.00 47 1009.5
20260503220157 13 233 6.4 16.1 0.00 0.00 0.00 49 1009.6
20260503215656 13 246 6.4 16.1 0.00 0.00 0.00 48 1009.6
20260503215157 13 285 6.4 19.3 0.00 0.00 0.00 47 1009.6
20260503214657 13 272 6.4 19.3 0.00 0.00 0.00 48 1009.5
20260503214156 13 243 8.0 20.9 0.00 0.00 0.00 47 1009.5
20260503213657 13 288 9.7 20.9 0.00 0.00 0.00 47 1009.6
20260503213158 13 239 9.7 22.5 0.00 0.00 0.00 46 1009.6
20260503212658 13 289 8.0 22.5 0.00 0.00 0.00 46 1009.7
20260503212157 13 285 6.4 17.7 0.00 0.00 0.00 49 1009.6
20260503211656 13 263 8.0 22.5 0.00 0.00 0.00 47 1009.5
20260503211157 13 281 8.0 22.5 0.00 0.00 0.00 47 1009.7
20260503210657 13 229 8.0 17.7 0.00 0.00 0.00 48 1009.7
20260503210156 13 280 8.0 19.3 0.00 0.00 0.00 48 1009.6
20260503205920 13 281 8.0 19.3 0.00 0.00 0.00 47 1009.7
20260503205154 13 284 6.4 16.1 0.00 0.00 0.00 48 1009.7
20260503204656 12 258 6.4 20.9 0.00 0.00 0.00 48 1009.9
20260503204416 12 300 8.0 20.9 0.00 0.00 0.00 48 1009.9
20260503203653 12 255 6.4 20.9 0.00 0.00 0.00 48 1010.0
20260503203152 12 289 8.0 20.9 0.00 0.00 0.00 47 1010.0
20260503202652 12 188 8.0 20.9 0.00 0.00 0.00 49 1010.1
20260503202153 12 252 8.0 20.9 0.00 0.00 0.00 46 1010.1
20260503201652 12 288 9.7 22.5 0.00 0.00 0.00 47 1010.3
20260503201153 12 327 9.7 22.5 0.00 0.00 0.00 46 1010.2
20260503200653 13 343 8.0 24.1 0.00 0.00 0.00 47 1010.3
20260503200153 13 167 9.7 24.1 0.00 0.00 0.00 48 1010.2
20260503195653 12 290 11.3 24.1 0.00 0.00 0.00 47 1010.4
20260503195152 13 292 11.3 24.1 0.00 0.00 0.00 48 1010.4
20260503194653 13 294 11.3 24.1 0.00 0.00 0.00 48 1010.5
20260503194417 13 304 8.0 20.9 0.00 0.00 0.00 49 1010.5
20260503193652 13 302 6.4 17.7 0.00 0.00 0.00 51 1010.6
20260503193153 12 247 9.7 25.7 0.00 0.00 0.00 52 1010.7
20260503192652 12 286 11.3 25.7 0.00 0.00 0.00 50 1010.7
20260503192153 12 296 8.0 20.9 0.00 0.00 0.00 51 1010.7
20260503191653 12 234 8.0 20.9 0.00 0.00 0.00 50 1010.7
20260503191153 12 299 8.0 17.7 0.00 0.00 0.00 50 1010.8
20260503190654 12 307 11.3 27.4 0.00 0.00 0.00 50 1010.8
20260503190152 12 288 11.3 27.4 0.00 0.00 0.00 48 1010.9
20260503185652 12 305 9.7 22.5 0.00 0.00 0.00 49 1010.8
20260503185153 12 250 11.3 24.1 0.00 0.00 0.00 50 1010.8
20260503184653 13 296 11.3 25.7 0.00 0.00 0.00 47 1010.8
20260503184153 13 278 9.7 25.7 0.00 0.00 0.00 48 1010.9
20260503183653 13 246 11.3 24.1 0.00 0.00 0.00 51 1010.8
20260503183417 12 263 9.7 24.1 0.00 0.00 0.00 48 1011.1
20260503182653 12 282 8.0 20.9 0.00 0.00 0.00 50 1011.1
20260503182412 11 317 8.0 20.9 0.00 0.00 0.00 48 1011.3
20260503181652 11 310 8.0 17.7 0.00 0.00 0.00 50 1011.4
20260503181410 11 271 6.4 17.7 0.00 0.00 0.00 50 1011.3
20260503180654 11 251 8.0 20.9 0.00 0.00 0.00 51 1011.5
20260503180152 11 259 6.4 20.9 0.00 0.00 0.00 48 1011.4
20260503175915 12 254 6.4 22.5 0.00 0.00 0.00 48 1011.4
20260503175153 12 265 8.0 22.5 0.00 0.00 0.00 51 1011.6
20260503174652 11 229 8.0 22.5 0.00 0.00 0.00 50 1011.7
20260503174152 11 301 8.0 19.3 0.00 0.00 0.00 49 1011.7
20260503173653 12 256 8.0 19.3 0.00 0.00 0.00 48 1011.9
20260503173153 11 235 8.0 19.3 0.00 0.00 0.00 51 1012.0
20260503172652 11 307 8.0 19.3 0.00 0.00 0.00 47 1012.0
20260503172152 11 277 8.0 19.3 0.00 0.00 0.00 50 1012.2
20260503171652 11 355 6.4 19.3 0.00 0.00 0.00 49 1012.1
20260503170653 11 278 6.4 16.1 0.00 0.00 0.00 50 1012.2
20260503170152 11 292 8.0 17.7 0.00 0.00 0.00 50 1012.1
20260503160148 10 317 8.0 16.1 0.00 0.00 0.00 50 1012.9
20260503150910 9 284 8.0 20.9 0.00 0.00 0.00 52 1013.6
20260503150148 8 271 6.4 17.7 0.00 0.00 0.00 53 1013.6
20260503140148 7 276 9.7 22.5 0.00 0.00 0.00 56 1013.8
20260503131148 6 355 8.0 17.7 0.00 0.00 0.00 67 1014.1
20260503130649 6 325 6.4 16.1 0.00 0.00 0.00 67 1014.1
20260503130148 6 313 4.8 19.3 0.00 0.00 0.00 71 1014.1
20260503120148 4 300 6.4 19.3 0.00 0.00 0.00 80 1014.0
20260503110648 1 284 1.6 6.4 0.00 0.00 0.00 86 1013.7
20260503110147 1 284 1.6 4.8 0.00 0.00 0.00 86 1013.5
20260503100148 2 284 0.0 4.8 0.00 0.00 0.00 81 1013.3
20260503090147 3 305 3.2 12.9 0.00 0.00 0.00 80 1013.4
20260503081148 3 273 3.2 11.3 0.00 0.00 0.00 80 1013.5
20260503080647 3 260 1.6 6.4 0.00 0.00 0.00 80 1013.5
20260503080147 3 260 1.6 6.4 0.00 0.00 0.00 80 1013.5
20260503072647 3 260 1.6 6.4 0.00 0.00 0.00 80 1013.5
20260503072417 3 260 1.6 4.8 0.00 0.00 0.00 80 1013.5
20260503071648 3 260 1.6 11.3 0.00 0.00 0.00 80 1013.4